Date String (YYYY-MM-DD hh:mm:ss) UTC,Instrument flags,absolute air pressure of the measurement (hPa),sample flow rate (lpm),inlet stack bypass flow (lpm),air temperature of the measurement (°C),ambient temperature measured by the external sensor (°C),aerosol sample conditioner tube jacket temperature (°C),OPC LED temperature (°C),internal box temperature (°C),relative humidity of the measurement (%),span deviation,mass concentration of particles derived from Lorenz-Mie calculation of OPC scattering (μg/m³),mass concentration of particles derived from Lorenz-Mie calculation of OPC scattering (μg/m³),mass concentration of particles derived from Lorenz-Mie calculation of OPC scattering (μg/m³)
DateTimeUTC,F1_M11,P_M11,Q1_M11,Q2_M11,T1_M11,T2_M11,T3_M11,T4_M11,T5_M11,U1_M11,ZSPAN_M11,X2_M11,X0_M11,X1_M11
2023-06-11 08:00:00,SystemResetWarning,0831.9,5.00,000.00,030.1,028.4,000.0,038.7,031.5,24.2,0000.0,0003.19,0006.37,0002.60
2023-06-11 08:01:00,SystemResetWarning,0831.9,4.99,000.00,030.1,028.4,000.0,038.7,031.5,24.3,0000.0,0003.22,0006.49,0002.63
2023-06-11 08:02:00,SystemResetWarning,0831.9,5.00,000.00,030.1,028.4,000.0,038.7,031.5,24.3,0000.0,0003.22,0006.85,0002.65
2023-06-11 08:03:00,SystemResetWarning,0831.9,5.00,000.00,030.1,028.4,000.0,038.7,031.4,24.4,0000.0,0003.23,0007.06,0002.65
2023-06-11 08:04:00,SystemResetWarning,0831.9,5.00,000.00,030.1,028.4,000.0,038.7,031.4,24.4,0000.0,0003.25,0007.31,0002.66
2023-06-11 08:05:00,SystemResetWarning,0831.9,5.00,000.00,030.1,028.4,000.0,038.7,031.4,24.5,0000.0,0003.24,0007.57,0002.65
2023-06-11 08:06:00,SystemResetWarning,0831.9,5.00,000.00,030.0,028.3,000.0,038.7,031.4,24.5,0000.0,0003.24,0007.57,0002.66
2023-06-11 08:07:00,SystemResetWarning,0831.9,5.00,000.00,030.0,028.2,000.0,038.7,031.3,24.5,0000.0,0003.24,0007.32,0002.66
2023-06-11 08:08:00,SystemResetWarning,0832.0,5.00,000.00,030.0,028.2,000.0,038.7,031.3,24.6,0000.0,0003.25,0006.68,0002.66
2023-06-11 08:09:00,SystemResetWarning,0832.0,5.00,000.00,029.9,028.1,000.0,038.7,031.2,24.6,0000.0,0003.26,0006.80,0002.64
2023-06-11 08:10:00,SystemResetWarning,0831.9,4.99,000.00,029.9,028.1,000.0,038.6,031.2,24.6,0000.0,0003.30,0006.98,0002.63
2023-06-11 08:11:00,SystemResetWarning,0831.9,5.00,000.00,029.9,028.0,000.0,038.6,031.2,24.7,0000.0,0003.29,0006.89,0002.63
2023-06-11 08:12:00,SystemResetWarning,0831.9,5.00,000.00,029.9,028.0,000.0,038.6,031.2,24.7,0000.0,0003.25,0006.75,0002.59
2023-06-11 08:13:00,SystemResetWarning,0831.9,5.00,000.00,029.8,028.0,000.0,038.6,031.1,24.7,0000.0,0003.26,0006.58,0002.56
2023-06-11 08:14:00,SystemResetWarning,0831.9,5.00,000.00,029.8,028.0,000.0,038.6,031.1,24.7,0000.0,0003.25,0006.24,0002.57
2023-06-11 08:15:00,SystemResetWarning,0831.9,5.01,000.00,029.8,028.0,000.0,038.5,031.1,24.8,0000.0,0003.23,0006.06,0002.56
2023-06-11 08:16:00,SystemResetWarning,0831.9,5.00,000.00,029.8,028.0,000.0,038.5,031.1,24.9,0000.0,0003.23,0005.42,0002.56
2023-06-11 08:17:00,SystemResetWarning,0831.9,5.00,000.00,029.8,028.0,000.0,038.5,031.0,24.9,0000.0,0003.23,0005.46,0002.55
2023-06-11 08:18:00,SystemResetWarning,0831.9,4.99,000.00,029.7,028.0,000.0,038.5,031.0,24.9,0000.0,0003.22,0005.41,0002.53
2023-06-11 08:19:00,SystemResetWarning,0831.9,5.00,000.00,029.7,028.0,000.0,038.5,031.0,25.0,0000.0,0003.21,0005.61,0002.53
2023-06-11 08:20:00,SystemResetWarning,0831.9,5.00,000.00,029.7,028.0,000.0,038.5,031.1,25.0,0000.0,0003.23,0006.89,0002.53
2023-06-11 08:21:00,SystemResetWarning,0831.9,5.00,000.00,029.7,028.1,000.0,038.4,031.1,25.0,0000.0,0003.20,0006.79,0002.53
2023-06-11 08:22:00,SystemResetWarning,0831.9,5.00,000.00,029.7,028.1,000.0,038.4,031.1,24.9,0000.0,0003.20,0006.81,0002.51
2023-06-11 08:23:00,SystemResetWarning,0831.9,5.00,000.00,029.7,028.1,000.0,038.4,031.2,24.9,0000.0,0003.20,0006.73,0002.51
2023-06-11 08:24:00,SystemResetWarning,0831.9,5.00,000.00,029.8,028.2,000.0,038.4,031.1,24.9,0000.0,0003.19,0006.66,0002.51
2023-06-11 08:25:00,SystemResetWarning,0831.9,5.00,000.00,029.7,028.2,000.0,038.4,031.2,24.8,0000.0,0003.19,0006.94,0002.51
2023-06-11 08:26:00,SystemResetWarning,0831.9,5.00,000.00,029.7,028.2,000.0,038.4,031.2,24.8,0000.0,0003.19,0007.41,0002.51
2023-06-11 08:27:00,SystemResetWarning,0831.8,4.99,000.00,029.8,028.2,000.0,038.4,031.2,24.8,0000.0,0003.17,0007.35,0002.51
2023-06-11 08:28:00,SystemResetWarning,0831.7,5.00,000.00,029.8,028.2,000.0,038.4,031.2,24.8,0000.0,0003.20,0007.37,0002.52
2023-06-11 08:29:00,SystemResetWarning,0831.8,5.00,000.00,029.8,028.2,000.0,038.4,031.2,24.8,0000.0,0003.21,0007.37,0002.53
2023-06-11 08:30:00,SystemResetWarning,0831.8,5.00,000.00,029.8,028.2,000.0,038.4,031.1,24.8,0000.0,0003.24,0007.32,0002.55
2023-06-11 08:31:00,SystemResetWarning,0831.8,4.99,000.00,029.8,028.2,000.0,038.4,031.2,24.8,0000.0,0003.20,0005.67,0002.54
2023-06-11 08:32:00,SystemResetWarning,0831.8,5.00,000.00,029.8,028.2,000.0,038.4,031.2,24.7,0000.0,0003.22,0005.69,0002.56
2023-06-11 08:33:00,SystemResetWarning,0831.8,5.00,000.00,029.7,028.2,000.0,038.4,031.2,24.8,0000.0,0003.22,0005.70,0002.58
2023-06-11 08:34:00,SystemResetWarning,0831.9,4.99,000.00,029.8,028.2,000.0,038.4,031.2,24.7,0000.0,0003.25,0005.87,0002.60
2023-06-11 08:35:00,SystemResetWarning,0831.8,5.01,000.00,029.8,028.2,000.0,038.4,031.2,24.6,0000.0,0003.28,0006.15,0002.62
2023-06-11 08:36:00,SystemResetWarning,0831.8,5.01,000.00,029.8,028.2,000.0,038.4,031.2,24.6,0000.0,0003.32,0007.18,0002.64
2023-06-11 08:37:00,SystemResetWarning,0831.7,5.00,000.00,029.8,028.2,000.0,038.4,031.2,24.6,0000.0,0003.36,0007.18,0002.67
2023-06-11 08:38:00,SystemResetWarning,0832.0,4.99,000.00,029.8,028.2,000.0,038.4,031.2,24.5,0000.0,0003.39,0007.74,0002.68
2023-06-11 08:39:00,SystemResetWarning,0831.8,5.00,000.00,029.8,028.2,000.0,038.4,031.2,24.5,0000.0,0003.38,0007.83,0002.69
2023-06-11 08:40:00,SystemResetWarning,0831.9,4.99,000.00,029.8,028.1,000.0,038.4,031.2,24.5,0000.0,0003.37,0007.95,0002.69
2023-06-11 08:41:00,SystemResetWarning,0831.9,5.00,000.00,029.8,028.1,000.0,038.4,031.2,24.6,0000.0,0003.33,0007.90,0002.67
2023-06-11 08:42:00,SystemResetWarning,0832.0,5.00,000.00,029.8,028.1,000.0,038.4,031.1,24.6,0000.0,0003.33,0007.90,0002.67
2023-06-11 08:43:00,SystemResetWarning,0831.8,5.00,000.00,029.7,028.1,000.0,038.4,031.1,24.6,0000.0,0003.31,0007.97,0002.66
2023-06-11 08:44:00,SystemResetWarning,0831.8,5.01,000.00,029.7,028.1,000.0,038.4,031.0,24.6,0000.0,0003.29,0007.92,0002.65
2023-06-11 08:45:00,SystemResetWarning,0831.9,5.00,000.00,029.7,028.0,000.0,038.4,031.0,24.6,0000.0,0003.30,0007.92,0002.65
2023-06-11 08:46:00,SystemResetWarning,0831.9,5.00,000.00,029.7,027.9,000.0,038.4,031.0,24.7,0000.0,0003.25,0007.77,0002.63
2023-06-11 08:47:00,SystemResetWarning,0831.9,5.00,000.00,029.6,027.9,000.0,038.3,030.9,24.7,0000.0,0003.21,0006.97,0002.61
2023-06-11 08:48:00,SystemResetWarning,0831.9,5.00,000.00,029.6,027.9,000.0,038.3,030.9,24.8,0000.0,0003.17,0006.49,0002.56
2023-06-11 08:49:00,SystemResetWarning,0831.9,5.00,000.00,029.6,027.8,000.0,038.3,030.8,24.9,0000.0,0003.14,0005.42,0002.54
2023-06-11 08:50:00,SystemResetWarning,0831.9,5.00,000.00,029.5,027.8,000.0,038.3,030.8,24.9,0000.0,0003.14,0005.38,0002.53
2023-06-11 08:51:00,SystemResetWarning,0831.9,5.00,000.00,029.5,027.7,000.0,038.3,030.8,25.0,0000.0,0003.14,0004.97,0002.52
2023-06-11 08:52:00,SystemResetWarning,0831.8,5.00,000.00,029.5,027.7,000.0,038.3,030.7,25.1,0000.0,0003.16,0004.96,0002.54
2023-06-11 08:53:00,SystemResetWarning,0831.8,5.00,000.00,029.5,027.7,000.0,038.2,030.7,25.1,0000.0,0003.18,0005.09,0002.55
2023-06-11 08:54:00,SystemResetWarning,0831.8,5.00,000.00,029.4,027.7,000.0,038.2,030.7,25.2,0000.0,0003.19,0004.97,0002.57
2023-06-11 08:55:00,SystemResetWarning,0831.8,5.00,000.00,029.4,027.7,000.0,038.2,030.7,25.2,0000.0,0003.23,0005.19,0002.56
2023-06-11 08:56:00,SystemResetWarning,0831.8,5.00,000.00,029.4,027.7,000.0,038.2,030.7,25.3,0000.0,0003.24,0005.28,0002.55
2023-06-11 08:57:00,SystemResetWarning,0832.1,5.00,000.00,029.4,027.7,000.0,038.2,030.6,25.4,0000.0,0003.24,0005.38,0002.55
2023-06-11 08:58:00,SystemResetWarning,0832.1,5.00,000.00,029.4,027.7,000.0,038.2,030.6,25.5,0000.0,0003.28,0005.57,0002.57
2023-06-11 08:59:00,SystemResetWarning,0831.8,5.00,000.00,029.3,027.7,000.0,038.1,030.6,25.5,0000.0,0003.28,0005.58,0002.59
